DW3979 Weather Reports


Display with metric or nautical units.
time (UTC)temp
F
wind
direction
speed
MPH
gust
MPH
rain 1hr
in
rain 24hr
in
rain mn
in
humidity
%
barometer
mb
20260905202540 89 109 2.0 7.0 0.00 0.00 0.00 30 1020.0
20260905202041 89 163 3.0 7.0 0.00 0.00 0.00 29 1020.1
20260905201540 89 171 4.0 11.0 0.00 0.00 0.00 30 1020.1
20260905201040 90 142 4.0 11.0 0.00 0.00 0.00 30 1020.2
20260905200038 89 153 3.0 7.0 0.00 0.00 0.00 29 1020.4
20260905195538 89 131 3.0 7.0 0.00 0.00 0.00 30 1020.5
20260905195034 89 155 2.0 6.0 0.00 0.00 0.00 30 1020.5
20260905193534 90 157 3.0 8.0 0.00 0.00 0.00 27 1020.6
20260905192534 92 136 2.0 6.0 0.00 0.00 0.00 27 1020.6
20260905192034 92 110 1.0 4.0 0.00 0.00 0.00 29 1020.7
20260905191533 91 106 1.0 4.0 0.00 0.00 0.00 29 1020.8
20260905191034 90 30 1.0 2.0 0.00 0.00 0.00 29 1020.9
20260905190532 90 0 1.0 5.0 0.00 0.00 0.00 30 1020.9
20260905190031 89 121 1.0 5.0 0.00 0.00 0.00 32 1021.0
20260905185530 89 336 2.0 6.0 0.00 0.00 0.00 31 1021.3
20260905185028 89 111 2.0 6.0 0.00 0.00 0.00 32 1021.4
20260905184528 89 20 1.0 4.0 0.00 0.00 0.00 32 1021.3
20260905184028 89 81 1.0 3.0 0.00 0.00 0.00 32 1021.5
20260905183528 89 344 1.0 3.0 0.00 0.00 0.00 32 1021.5
20260905183026 89 65 1.0 5.0 0.00 0.00 0.00 32 1021.6
20260905182526 89 111 1.0 5.0 0.00 0.00 0.00 32 1021.7
20260905181018 87 141 1.0 3.0 0.00 0.00 0.00 35 1021.8
20260905180516 86 30 1.0 4.0 0.00 0.00 0.00 35 1021.9
20260905180014 86 86 1.0 4.0 0.00 0.00 0.00 35 1021.8
20260905175515 86 350 0.0 2.0 0.00 0.00 0.00 34 1021.9
20260905175012 86 88 0.0 3.0 0.00 0.00 0.00 36 1022.1
20260905173508 85 342 1.0 3.0 0.00 0.00 0.00 37 1021.9
20260905173008 85 346 1.0 3.0 0.00 0.00 0.00 36 1022.1
20260905172506 85 53 0.0 1.0 0.00 0.00 0.00 37 1022.1
20260905172004 85 53 0.0 2.0 0.00 0.00 0.00 36 1022.2
20260905171504 85 84 0.0 2.0 0.00 0.00 0.00 36 1022.2
20260905171002 84 82 0.0 2.0 0.00 0.00 0.00 37 1022.2
20260905170502 84 82 0.0 2.0 0.00 0.00 0.00 38 1022.2
20260905170000 83 82 0.0 2.0 0.00 0.00 0.00 38 1022.2
20260905165457 83 347 0.0 3.0 0.00 0.00 0.00 38 1022.2
20260905165000 82 347 1.0 3.0 0.00 0.00 0.00 38 1022.3
20260905164456 82 346 0.0 3.0 0.00 0.00 0.00 38 1022.3
20260905163453 81 325 1.0 3.0 0.00 0.00 0.00 39 1022.2
20260905162948 80 325 1.0 3.0 0.00 0.00 0.00 38 1022.2
20260905162446 80 333 1.0 4.0 0.00 0.00 0.00 38 1022.1
20260905161946 80 338 0.0 4.0 0.00 0.00 0.00 38 1022.1
20260905161446 80 333 0.0 1.0 0.00 0.00 0.00 37 1022.1
20260905160944 80 328 0.0 0.0 0.00 0.00 0.00 38 1021.9
20260905160444 79 328 0.0 0.0 0.00 0.00 0.00 38 1022.1
20260905154442 79 318 0.0 0.0 0.00 0.00 0.00 37 1022.1
20260905153442 79 318 0.0 1.0 0.00 0.00 0.00 39 1022.2
20260905152942 78 303 0.0 1.0 0.00 0.00 0.00 39 1022.2
20260905152440 78 303 0.0 1.0 0.00 0.00 0.00 39 1022.1
20260905151940 77 303 0.0 0.0 0.00 0.00 0.00 41 1022.1
20260905151438 77 303 0.0 0.0 0.00 0.00 0.00 39 1022.1
20260905150435 77 281 0.0 0.0 0.00 0.00 0.00 42 1021.9
20260905145936 76 281 0.0 0.0 0.00 0.00 0.00 41 1021.9
20260905145436 76 281 0.0 0.0 0.00 0.00 0.00 43 1021.9
20260905144936 76 281 0.0 0.0 0.00 0.00 0.00 43 1021.9
20260905144434 75 281 0.0 0.0 0.00 0.00 0.00 45 1021.8
20260905143432 74 281 0.0 0.0 0.00 0.00 0.00 49 1021.7
20260905142930 73 281 0.0 0.0 0.00 0.00 0.00 51 1021.7
20260905142428 72 271 0.0 0.0 0.00 0.00 0.00 52 1021.6
20260905141426 70 271 0.0 0.0 0.00 0.00 0.00 53 1021.5
20260905140926 69 271 0.0 0.0 0.00 0.00 0.00 51 1021.5
20260905140424 69 271 0.0 0.0 0.00 0.00 0.00 50 1021.4
20260905135924 69 271 0.0 0.0 0.00 0.00 0.00 53 1021.4
20260905135422 69 271 0.0 0.0 0.00 0.00 0.00 53 1021.4
20260905134920 69 271 0.0 0.0 0.00 0.00 0.00 52 1021.3
20260905134420 68 271 0.0 0.0 0.00 0.00 0.00 53 1021.1
20260905133420 67 271 0.0 0.0 0.00 0.00 0.00 53 1021.0
20260905132923 67 271 0.0 0.0 0.00 0.00 0.00 53 1020.9
20260905132418 67 271 0.0 2.0 0.00 0.00 0.00 52 1020.9
20260905130916 67 271 2.0 3.0 0.00 0.00 0.00 51 1020.7
20260905125912 67 270 0.0 2.0 0.00 0.00 0.00 50 1020.6
20260905125412 67 262 0.0 1.0 0.00 0.00 0.00 50 1020.5
20260905124910 67 262 0.0 3.0 0.00 0.00 0.00 50 1020.4
20260905123904 67 263 1.0 3.0 0.00 0.00 0.00 49 1020.4
20260905123402 68 263 1.0 3.0 0.00 0.00 0.00 48 1020.4
20260905122900 68 263 1.0 3.0 0.00 0.00 0.00 47 1020.2
20260905122400 68 262 2.0 3.0 0.00 0.00 0.00 47 1020.2
20260905121859 68 265 1.0 3.0 0.00 0.00 0.00 46 1020.2
20260905120859 69 264 0.0 0.0 0.00 0.00 0.00 47 1020.2
20260905120359 69 264 0.0 0.0 0.00 0.00 0.00 47 1020.2
20260905115854 69 264 1.0 2.0 0.00 0.00 0.00 46 1020.2
20260905115351 69 264 1.0 2.0 0.00 0.00 0.00 45 1020.1
20260905114350 69 263 0.0 3.0 0.00 0.00 0.00 48 1020.0
20260905113848 69 263 1.0 3.0 0.00 0.00 0.00 47 1020.1
20260905113348 69 263 0.0 2.0 0.00 0.00 0.00 48 1020.1
20260905112845 69 259 0.0 0.0 0.00 0.00 0.00 47 1020.1
20260905111844 69 259 0.0 3.0 0.00 0.00 0.00 47 1020.0
20260905111344 69 259 1.0 3.0 0.00 0.00 0.00 46 1020.0
20260905110844 69 279 1.0 2.0 0.00 0.00 0.00 46 1020.0
20260905110343 69 267 1.0 2.0 0.00 0.00 0.00 45 1020.0
20260905105843 69 267 1.0 2.0 0.00 0.00 0.00 46 1020.0
20260905105344 69 267 1.0 2.0 0.00 0.00 0.00 47 1020.0
20260905104844 69 271 1.0 2.0 0.00 0.00 0.00 46 1020.0
20260905103847 69 266 0.0 3.0 0.00 0.00 0.00 46 1019.9
20260905103343 70 300 0.0 0.0 0.00 0.00 0.00 45 1019.9
20260905102842 71 326 0.0 0.0 0.00 0.00 0.00 44 1019.9
20260905102341 72 268 0.0 0.0 0.00 0.00 0.00 43 1019.8
20260905101839 73 208 0.0 0.0 0.00 0.00 0.00 41 1019.8
20260905101339 73 208 0.0 1.0 0.00 0.00 0.00 40 1019.9
20260905100836 74 208 0.0 1.0 0.00 0.00 0.00 40 1019.8
20260905100336 74 216 1.0 2.0 0.00 0.00 0.00 40 1019.8
20260905095836 74 216 1.0 3.0 0.00 0.00 0.00 39 1019.8
20260905095335 74 211 2.0 4.0 0.00 0.00 0.00 39 1019.8
20260905094836 74 198 2.0 4.0 0.00 0.00 0.00 39 1019.9
20260905093836 74 196 2.0 3.0 0.00 0.00 0.00 37 1019.8
20260905084827 76 209 2.0 4.0 0.00 0.00 0.00 36 1019.8
20260905084325 76 215 2.0 4.0 0.00 0.00 0.00 36 1019.9
20260905083826 76 204 2.0 4.0 0.00 0.00 0.00 35 1019.9
20260905083325 76 191 2.0 4.0 0.00 0.00 0.00 35 1020.0
20260905082825 76 198 2.0 4.0 0.00 0.00 0.00 35 1019.9
20260905081824 75 202 2.0 3.0 0.00 0.00 0.00 36 1020.0
20260905081323 75 192 1.0 3.0 0.00 0.00 0.00 38 1020.0
20260905080821 75 192 0.0 3.0 0.00 0.00 0.00 38 1020.0
20260905080319 75 203 0.0 0.0 0.00 0.00 0.00 38 1020.0
20260905075817 75 203 1.0 2.0 0.00 0.00 0.00 39 1020.0
20260905074809 76 203 1.0 2.0 0.00 0.00 0.00 38 1020.0
20260905074310 76 234 0.0 2.0 0.00 0.00 0.00 38 1020.0
20260905073307 76 223 1.0 2.0 0.00 0.00 0.00 38 1020.0
20260905072807 76 223 1.0 2.0 0.00 0.00 0.00 38 1019.9
20260905071808 76 212 1.0 3.0 0.00 0.00 0.00 39 1019.9
20260905071301 76 201 1.0 4.0 0.00 0.00 0.00 39 1019.9
20260905070801 77 205 2.0 5.0 0.00 0.00 0.00 40 1019.9
20260905070301 76 200 2.0 5.0 0.00 0.00 0.00 41 1019.9
20260905065800 77 197 2.0 4.0 0.00 0.00 0.00 41 1019.8
20260905065300 77 207 2.0 4.0 0.00 0.00 0.00 42 1019.8
20260905064801 77 196 2.0 4.0 0.00 0.00 0.00 43 1019.8
20260905064303 77 198 3.0 7.0 0.00 0.00 0.00 43 1019.8
20260905062754 78 207 3.0 9.0 0.00 0.00 0.00 42 1019.8
20260905062254 78 183 3.0 9.0 0.00 0.00 0.00 42 1019.8
20260905061751 78 198 2.0 5.0 0.00 0.00 0.00 42 1019.8
20260905061250 77 203 2.0 4.0 0.00 0.00 0.00 43 1019.8
20260905060749 77 198 2.0 4.0 0.00 0.00 0.00 43 1019.8
20260905055746 77 187 2.0 5.0 0.00 0.00 0.00 42 1019.7
20260905054742 77 201 2.0 3.0 0.00 0.00 0.00 42 1019.7
20260905054242 78 191 2.0 4.0 0.00 0.00 0.00 42 1019.7
20260905053240 77 196 2.0 3.0 0.00 0.00 0.00 42 1019.6
20260905052740 77 191 2.0 3.0 0.00 0.00 0.00 42 1019.6
20260905052241 77 193 1.0 3.0 0.00 0.00 0.00 43 1019.6
20260905051741 77 195 1.0 3.0 0.00 0.00 0.00 43 1019.6
20260905051238 77 194 1.0 3.0 0.00 0.00 0.00 43 1019.6
20260905050737 76 205 1.0 3.0 0.00 0.00 0.00 43 1019.6
20260905050233 76 196 1.0 3.0 0.00 0.00 0.00 44 1019.7
20260905045732 76 196 1.0 3.0 0.00 0.00 0.00 43 1019.7
20260905045234 77 196 1.0 2.0 0.00 0.00 0.00 43 1019.6
20260905044730 77 196 1.0 2.0 0.00 0.00 0.00 42 1019.6
20260905044231 77 196 1.0 2.0 0.00 0.00 0.00 43 1019.6
20260905043228 77 196 1.0 4.0 0.00 0.00 0.00 43 1019.6
20260905042728 76 175 1.0 4.0 0.00 0.00 0.00 44 1019.7
20260905042226 76 196 1.0 2.0 0.00 0.00 0.00 44 1019.6
20260905041727 76 196 0.0 2.0 0.00 0.00 0.00 44 1019.6
20260905041227 76 196 0.0 3.0 0.00 0.00 0.00 45 1019.6
20260905040222 76 196 1.0 3.0 0.00 0.00 0.00 44 1019.4
20260905035722 77 196 1.0 2.0 0.00 0.00 0.00 44 1019.3
20260905035220 77 196 1.0 4.0 0.00 0.00 0.00 44 1019.3
20260905034717 77 196 1.0 4.0 0.00 0.00 0.00 44 1019.3
20260905033718 77 197 1.0 2.0 0.00 0.00 0.00 43 1019.3
20260905033216 77 197 1.0 3.0 0.00 0.00 0.00 43 1019.3
20260905032715 77 197 2.0 3.0 0.00 0.00 0.00 43 1019.3
20260905030714 78 185 0.0 0.0 0.00 0.00 0.00 43 1018.9
20260905030208 78 185 0.0 0.0 0.00 0.00 0.00 43 1018.9
20260905025706 78 185 0.0 0.0 0.00 0.00 0.00 43 1018.8
20260905025206 78 185 0.0 0.0 0.00 0.00 0.00 43 1018.6
20260905024707 78 185 0.0 0.0 0.00 0.00 0.00 42 1018.5
20260905024202 79 185 0.0 0.0 0.00 0.00 0.00 42 1018.5
20260905023702 79 185 1.0 3.0 0.00 0.00 0.00 41 1018.4
20260905022201 79 182 1.0 3.0 0.00 0.00 0.00 41 1018.3
20260905021700 80 240 0.0 0.0 0.00 0.00 0.00 41 1018.3
20260905021200 80 240 0.0 0.0 0.00 0.00 0.00 41 1018.2
20260905020659 80 240 0.0 0.0 0.00 0.00 0.00 41 1018.3
20260905020157 80 236 0.0 0.0 0.00 0.00 0.00 41 1018.2
20260905015655 80 191 0.0 0.0 0.00 0.00 0.00 40 1018.2
20260905014652 80 181 1.0 2.0 0.00 0.00 0.00 39 1018.1
20260905014152 81 181 2.0 5.0 0.00 0.00 0.00 39 1018.1
20260905013653 81 181 2.0 5.0 0.00 0.00 0.00 38 1018.1
20260905013153 81 189 1.0 5.0 0.00 0.00 0.00 38 1018.1
20260905012653 81 187 1.0 3.0 0.00 0.00 0.00 38 1018.1
20260905012152 82 198 2.0 5.0 0.00 0.00 0.00 37 1018.0
20260905011652 82 214 2.0 6.0 0.00 0.00 0.00 36 1018.0
20260905011152 82 244 1.0 6.0 0.00 0.00 0.00 37 1018.0
20260905010651 82 195 1.0 3.0 0.00 0.00 0.00 37 1017.9
20260905010152 83 203 1.0 3.0 0.00 0.00 0.00 35 1017.9
20260905005648 83 212 1.0 3.0 0.00 0.00 0.00 34 1017.9
20260905005146 84 187 2.0 3.0 0.00 0.00 0.00 34 1017.9
20260905004646 84 225 1.0 3.0 0.00 0.00 0.00 33 1017.9
20260905004144 85 186 1.0 3.0 0.00 0.00 0.00 33 1017.9
20260905003644 85 139 1.0 3.0 0.00 0.00 0.00 34 1017.9
20260905003144 85 204 1.0 4.0 0.00 0.00 0.00 32 1017.9
20260905002645 85 207 2.0 6.0 0.00 0.00 0.00 32 1018.0
20260905001644 85 150 3.0 6.0 0.00 0.00 0.00 33 1018.0
20260905001143 85 132 3.0 7.0 0.00 0.00 0.00 32 1018.0
20260905000642 85 172 3.0 7.0 0.00 0.00 0.00 33 1018.0
20260904235640 85 194 2.0 9.0 0.00 0.00 0.00 36 1017.9
20260904235140 85 163 3.0 10.0 0.00 0.00 0.00 35 1017.9
20260904234641 87 150 3.0 10.0 0.00 0.00 0.00 34 1017.7
20260904234140 88 136 2.0 5.0 0.00 0.00 0.00 33 1017.7
20260904233638 87 115 2.0 5.0 0.00 0.00 0.00 34 1017.7
20260904233141 87 100 2.0 3.0 0.00 0.00 0.00 35 1017.9
20260904232136 85 134 2.0 6.0 0.00 0.00 0.00 36 1017.9
20260904231637 85 139 3.0 6.0 0.00 0.00 0.00 37 1018.0
20260904231136 85 135 3.0 6.0 0.00 0.00 0.00 37 1018.0
20260904230636 85 155 2.0 6.0 0.00 0.00 0.00 37 1018.1
20260904230136 85 126 2.0 6.0 0.00 0.00 0.00 39 1018.1
20260904225634 86 121 4.0 8.0 0.00 0.00 0.00 37 1018.2
20260904225132 86 167 4.0 8.0 0.00 0.00 0.00 37 1018.2
20260904224632 86 133 3.0 7.0 0.00 0.00 0.00 36 1018.2
20260904223632 85 196 3.0 7.0 0.00 0.00 0.00 37 1018.2
20260904223132 85 185 3.0 7.0 0.00 0.00 0.00 37 1018.2
20260904222630 85 182 3.0 6.0 0.00 0.00 0.00 37 1018.3
20260904222129 85 161 3.0 9.0 0.00 0.00 0.00 37 1018.3
20260904221629 85 168 3.0 9.0 0.00 0.00 0.00 37 1018.3
20260904221128 85 132 3.0 11.0 0.00 0.00 0.00 39 1018.4
20260904220628 85 175 4.0 11.0 0.00 0.00 0.00 36 1018.4
20260904220127 86 162 4.0 10.0 0.00 0.00 0.00 36 1018.4
20260904215626 85 180 4.0 10.0 0.00 0.00 0.00 38 1018.5
20260904214626 87 150 4.0 10.0 0.00 0.00 0.00 34 1018.5
20260904214126 87 150 3.0 8.0 0.00 0.00 0.00 36 1018.4
20260904213626 87 107 3.0 8.0 0.00 0.00 0.00 36 1018.4
20260904213126 86 124 3.0 8.0 0.00 0.00 0.00 36 1018.5
20260904212626 86 123 3.0 6.0 0.00 0.00 0.00 37 1018.4
20260904211621 87 134 4.0 12.0 0.00 0.00 0.00 36 1018.6
20260904211120 87 136 3.0 8.0 0.00 0.00 0.00 36 1018.8
20260904210623 87 138 3.0 7.0 0.00 0.00 0.00 34 1018.9
20260904210118 87 92 4.0 10.0 0.00 0.00 0.00 35 1018.9
20260904205614 87 143 4.0 10.0 0.00 0.00 0.00 35 1019.0
20260904205114 87 144 2.0 9.0 0.00 0.00 0.00 36 1018.9
20260904204614 87 184 2.0 10.0 0.00 0.00 0.00 36 1019.0
20260904204112 86 186 4.0 10.0 0.00 0.00 0.00 35 1019.0
20260904203611 87 117 4.0 17.0 0.00 0.00 0.00 35 1019.1